1520773200.17,8984,12.25,72810.5,13.07,-21.57,-21.47,0,*74
1520773201.38,8985,12.25,72808.0,13.07,-22.27,-22.07,0,*76
1520773202.58,8986,12.25,72810.5,13.07,-22.41,-22.27,0,*77
1520773203.86,8987,12.25,72810.0,13.05,-21.27,-21.03,0,*72
1520773205.08,8988,12.25,72810.0,13.03,-21.87,-21.73,0,*76
1520773206.33,8989,12.25,72808.0,13.05,-22.41,-22.21,0,*7C
1520773207.56,8990,12.25,72810.5,13.03,-22.17,-22.11,0,*72
1520773208.8,8991,12.25,72812.5,13.03,-21.53,-21.17,0,*75
1520773210.06,8992,12.25,72808.8,13.03,-21.33,-21.23,0,*77
1520773211.26,8993,12.25,72808.0,13.03,-21.39,-21.17,0,*7B
1520773212.49,8994,12.25,72808.8,13.03,-21.33,-21.17,0,*76
1520773213.71,8995,12.25,72810.5,13.03,-21.87,-21.73,0,*7A
1520773214.94,8996,12.25,72810.5,13.01,-22.67,-22.41,0,*74
1520773216.16,8997,12.25,72806.5,13.01,-21.63,-21.43,0,*73
1520773217.44,8998,12.25,72810.3,13.01,-21.23,-20.99,0,*7E
1520773218.64,8999,12.25,72810.3,12.99,-21.63,-21.43,0,*7D
1520773219.89,9000,12.25,72806.3,13.01,-21.57,-21.13,0,*77
1520773221.15,9001,12.25,72808.8,13.01,-20.79,-20.63,0,*7D
1520773222.35,9002,12.25,72808.5,13.03,-21.43,-21.17,0,*76
1520773223.61,9003,12.25,72810.5,12.99,-20.79,-20.49,0,*77
1520773224.89,9004,12.25,72808.5,13.01,-20.99,-20.83,0,*78
1520773226.09,9005,12.25,72808.3,12.99,-21.43,-21.13,0,*77
1520773227.32,9006,12.25,72808.3,13.03,-21.43,-21.23,0,*75
1520773228.61,9007,12.25,72808.8,13.01,-22.31,-22.17,0,*74
1520773229.82,9008,12.25,72806.0,12.99,-22.53,-22.37,0,*7D
1520773231.02,9009,12.25,72810.3,12.99,-22.03,-21.77,0,*7E
1520773232.22,9010,12.25,72806.5,12.99,-21.93,-21.73,0,*78
1520773233.46,9011,12.25,72808.0,12.99,-21.43,-21.23,0,*71
1520773234.72,9012,12.25,72806.0,12.99,-20.99,-20.83,0,*7F
1520773235.95,9013,12.25,72808.0,12.99,-22.53,-22.31,0,*71
1520773237.18,9014,12.25,72812.0,12.97,-22.11,-21.93,0,*75
1520773238.44,9015,12.25,72808.5,12.97,-22.93,-22.73,0,*73
1520773239.66,9016,12.25,72810.0,12.95,-22.63,-22.47,0,*7A
1520773240.92,9017,12.25,72810.5,12.91,-22.63,-22.47,0,*7F
1520773242.12,9018,12.25,72808.8,12.89,-24.47,-24.31,0,*7E
1520773243.35,9019,12.25,72812.8,12.87,-22.97,-22.83,0,*75
1520773244.62,9020,12.25,72810.3,12.87,-24.11,-23.85,0,*70
1520773245.87,9021,12.25,72812.5,12.87,-22.67,-22.47,0,*79
1520773247.12,9022,12.25,72808.5,12.87,-21.57,-21.43,0,*7D
1520773248.34,9023,12.25,72810.5,12.85,-21.47,-21.33,0,*78
1520773249.56,9024,12.25,72812.5,12.85,-21.77,-21.67,0,*7D
1520773250.76,9025,12.25,72808.3,12.85,-22.53,-22.37,0,*7F
1520773252.04,9026,12.25,72808.5,12.83,-21.23,-21.23,0,*78
1520773253.29,9027,12.25,72810.8,12.83,-20.89,-20.79,0,*76
1520773254.48,9028,12.25,72808.5,12.85,-21.63,-21.47,0,*76
1520773255.73,9029,12.25,72806.5,12.85,-21.97,-21.83,0,*74
1520773256.95,9030,12.25,72806.8,12.85,-22.21,-22.07,0,*7D
1520773258.16,9031,12.25,72808.8,12.85,-21.57,-21.43,0,*7D
1520773259.41,9032,12.25,72812.0,12.85,-21.83,-21.67,0,*71
1520773260.61,9033,12.25,72808.3,12.85,-21.43,-21.13,0,*7F
1520773261.82,9034,12.25,72808.0,12.85,-20.25,-20.19,0,*72
1520773263.07,9035,12.25,72808.0,12.87,-20.19,-20.05,0,*73
1520773264.27,9036,12.25,72810.0,12.85,-19.95,-19.75,0,*71
1520773265.5,9037,12.25,72812.8,12.91,-19.81,-19.51,0,*76
1520773266.73,9038,12.25,72810.3,12.89,-20.49,-20.43,0,*77
1520773267.98,9039,12.25,72812.0,12.91,-21.33,-21.17,0,*73
1520773269.21,9040,12.25,72806.8,12.89,-20.43,-20.15,0,*71
1520773270.42,9041,12.25,72812.0,12.91,-20.29,-20.09,0,*78
1520773271.62,9042,12.25,72810.0,12.89,-20.29,-19.99,0,*71
1520773272.84,9043,12.25,72810.3,12.95,-19.91,-19.65,0,*77
1520773274.1,9044,12.25,72808.3,12.97,-20.39,-20.19,0,*7B
1520773275.34,9045,12.25,72812.3,12.95,-19.81,-19.61,0,*74
1520773276.54,9046,12.25,72812.5,12.99,-19.91,-19.71,0,*7B
1520773277.82,9047,12.25,72808.8,13.01,-19.85,-19.61,0,*7E
1520773279.08,9048,12.25,72810.0,12.99,-19.85,-19.57,0,*74
1520773280.33,9049,12.25,72808.3,13.01,-20.19,-19.91,0,*70
1520773281.58,9050,12.25,72808.8,13.03,-19.85,-19.65,0,*7E
1520773282.81,9051,12.25,72808.0,13.03,-19.95,-19.65,0,*7E
1520773284.04,9052,12.25,72810.0,13.05,-20.25,-20.09,0,*7A
1520773285.28,9053,12.25,72810.3,13.05,-20.09,-19.81,0,*7F
1520773286.54,9054,12.25,72814.0,13.05,-19.61,-19.13,0,*77
1520773287.77,9055,12.25,72810.0,13.05,-19.13,-18.83,0,*7B
1520773289.03,9056,12.25,72812.3,13.07,-19.61,-19.27,0,*70
1520773290.22,9057,12.25,72810.5,13.07,-19.47,-19.03,0,*73
1520773291.45,9058,12.25,72810.5,13.11,-19.23,-19.03,0,*79
1520773292.7,9059,12.25,72812.3,13.13,-20.79,-20.59,0,*7A
1520773293.91,9060,12.25,72812.0,13.11,-21.17,-20.89,0,*76
1520773295.14,9061,12.25,72812.3,13.13,-19.71,-19.51,0,*71
1520773296.38,9062,12.25,72812.0,13.13,-19.41,-19.07,0,*72
1520773297.58,9063,12.25,72810.5,13.11,-19.51,-19.17,0,*71
1520773298.86,9064,12.25,72812.3,13.13,-19.65,-19.41,0,*70
1520773300.08,9065,12.25,72814.8,13.17,-20.25,-19.91,0,*76
1520773301.32,9066,12.25,72812.8,13.19,-20.35,-20.19,0,*70
1520773302.55,9067,12.25,72808.8,13.19,-20.63,-20.49,0,*77
1520773303.76,9068,12.25,72812.8,13.19,-20.05,-19.85,0,*72
1520773305.01,9069,12.25,72812.5,13.19,-20.53,-20.49,0,*7A
1520773306.26,9070,12.25,72810.8,13.19,-22.21,-22.21,0,*79
1520773307.51,9071,12.25,72808.3,13.17,-23.03,-22.93,0,*7E
1520773308.76,9072,12.25,72812.0,13.13,-23.49,-23.43,0,*7B
1520773309.97,9073,12.25,72814.8,13.11,-23.13,-22.97,0,*7F
1520773311.19,9074,12.25,72810.8,13.07,-23.49,-23.59,0,*73
1520773312.4,9075,12.25,72810.8,13.07,-23.09,-22.93,0,*71
1520773313.65,9076,12.25,72814.5,13.07,-23.29,-23.19,0,*73
1520773314.86,9077,12.25,72812.0,13.03,-23.09,-22.93,0,*77
1520773316.07,9078,12.25,72814.3,13.03,-23.75,-23.59,0,*74
1520773317.31,9079,12.25,72812.3,12.99,-23.69,-23.65,0,*75
1520773318.52,9080,12.25,72812.8,12.99,-22.97,-22.83,0,*7A
1520773319.77,9081,12.25,72814.8,12.97,-23.69,-23.43,0,*78
1520773321.0,9082,12.25,72814.0,12.95,-23.39,-23.23,0,*7A
1520773322.23,9083,12.25,72810.5,12.89,-23.53,-23.43,0,*7C
1520773323.46,9084,12.25,72808.8,12.89,-23.69,-23.43,0,*72
1520773324.7,9085,12.25,72812.0,12.87,-24.31,-24.15,0,*73
1520773325.9,9086,12.25,72810.5,12.85,-24.61,-24.51,0,*77
1520773327.12,9087,12.25,72810.3,12.85,-22.93,-22.77,0,*7F
1520773328.38,9088,12.25,72808.5,12.83,-22.47,-22.27,0,*7A
1520773329.65,9089,12.25,72810.8,12.83,-22.17,-21.97,0,*76
1520773330.88,9090,12.25,72810.8,12.81,-23.59,-23.33,0,*7B
1520773332.1,9091,12.25,72812.0,12.81,-23.65,-23.43,0,*72
1520773333.36,9092,12.25,72810.5,12.79,-23.19,-22.97,0,*75
1520773334.57,9093,12.25,72814.0,12.77,-22.07,-21.83,0,*72
1520773335.77,9094,12.25,72812.0,12.77,-22.07,-21.93,0,*74
1520773337.04,9095,12.25,72814.5,12.79,-21.67,-21.57,0,*76
1520773338.29,9096,12.25,72812.3,12.79,-21.43,-21.23,0,*70
1520773339.54,9097,12.25,72812.3,12.81,-21.53,-21.53,0,*70
1520773340.76,9098,12.25,72814.0,12.79,-21.43,-21.13,0,*7D
1520773342.01,9099,12.25,72812.3,12.79,-21.23,-21.09,0,*71
1520773343.23,9100,12.25,72814.8,12.77,-21.33,-21.17,0,*70
1520773344.45,9101,12.31,72814.0,12.81,-21.09,-20.83,0,*7D
1520773345.68,9102,12.25,72814.0,12.81,-21.73,-21.53,0,*7F
1520773346.91,9103,12.25,72810.5,12.81,-21.43,-21.23,0,*7A
1520773348.13,9104,12.25,72810.5,12.81,-21.13,-20.99,0,*78
1520773349.39,9105,12.25,72812.8,12.83,-21.67,-21.47,0,*7A
1520773350.61,9106,12.25,72808.8,12.81,-22.17,-22.03,0,*7C
1520773351.87,9107,12.25,72812.5,12.81,-21.23,-20.99,0,*78
1520773353.09,9108,12.31,72812.8,12.81,-20.93,-20.83,0,*76
1520773354.34,9109,12.25,72812.8,12.83,-21.33,-21.17,0,*72
1520773355.56,9110,12.25,72814.0,12.81,-21.09,-20.83,0,*7D
1520773356.78,9111,12.25,72810.5,12.81,-21.09,-20.83,0,*7C
1520773358.01,9112,12.31,72812.3,12.85,-21.03,-20.73,0,*7E
1520773359.25,9113,12.25,72810.8,12.85,-20.53,-20.35,0,*79
1520773360.47,9114,12.31,72814.3,12.85,-20.19,-20.05,0,*73
1520773361.72,9115,12.25,72812.0,12.87,-20.63,-20.49,0,*75
1520773363.0,9116,12.25,72810.3,12.87,-20.53,-20.49,0,*75
1520773364.25,9117,12.31,72814.3,12.85,-21.03,-20.83,0,*74
1520773365.49,9118,12.31,72812.5,12.87,-21.63,-21.53,0,*73
1520773366.69,9119,12.25,72810.8,12.85,-22.53,-22.41,0,*70
1520773367.91,9120,12.25,72814.0,12.85,-23.53,-23.39,0,*75
1520773369.16,9121,12.31,72814.0,12.85,-23.19,-23.03,0,*73
1520773370.38,9122,12.25,72808.0,12.81,-23.43,-23.29,0,*73
1520773371.6,9123,12.25,72810.8,12.81,-23.69,-23.59,0,*7D
1520773372.82,9124,12.25,72808.3,12.77,-23.23,-23.09,0,*78
1520773374.05,9125,12.31,72810.0,12.77,-23.75,-23.65,0,*70
1520773375.28,9126,12.25,72808.5,12.77,-24.21,-24.05,0,*74
1520773376.54,9127,12.31,72812.3,12.73,-24.25,-24.21,0,*73
1520773377.76,9128,12.31,72814.0,12.75,-23.39,-23.39,0,*7E
1520773379.01,9129,12.31,72814.5,12.67,-23.85,-23.75,0,*73
1520773380.23,9130,12.31,72812.8,12.69,-23.79,-23.65,0,*77
1520773381.46,9131,12.31,72814.0,12.63,-24.05,-23.89,0,*72
1520773382.73,9132,12.25,72810.0,12.63,-24.21,-24.11,0,*71
1520773384.02,9133,12.25,72810.3,12.63,-22.47,-22.31,0,*72
1520773385.25,9134,12.31,72810.8,12.61,-22.87,-22.47,0,*7A
1520773386.5,9135,12.25,72810.3,12.61,-23.29,-23.23,0,*7D
1520773387.73,9136,12.25,72808.5,12.61,-23.69,-23.43,0,*7C
1520773388.93,9137,12.25,72810.3,12.61,-25.23,-25.35,0,*72
1520773390.12,9138,12.31,72808.3,12.55,-25.19,-25.19,0,*7D
1520773391.34,9139,12.25,72810.0,12.53,-25.13,-25.13,0,*7A
1520773392.57,9140,12.31,72808.0,12.51,-25.65,-25.71,0,*73
1520773393.8,9141,12.31,72814.0,12.49,-25.09,-25.19,0,*7F
1520773395.04,9142,12.31,72810.5,12.45,-25.45,-25.35,0,*76
1520773396.26,9143,12.31,72808.8,12.43,-25.35,-25.45,0,*71
1520773397.46,9144,12.25,72810.8,12.39,-24.57,-24.61,0,*79
1520773398.72,9145,12.31,72810.8,12.37,-25.55,-25.39,0,*79
1520773399.94,9146,12.31,72808.8,12.37,-25.23,-25.23,0,*70
1520773401.17,9147,12.25,72810.3,12.33,-24.35,-24.31,0,*71
1520773402.45,9148,12.31,72810.8,12.33,-25.03,-25.03,0,*7A
1520773403.68,9149,12.31,72808.8,12.33,-23.59,-23.59,0,*7B
1520773404.96,9150,12.31,72810.3,12.29,-24.25,-24.25,0,*78
1520773406.18,9151,12.25,72808.3,12.29,-24.05,-23.89,0,*7A
1520773407.47,9152,12.31,72808.8,12.29,-24.25,-24.25,0,*7A
1520773408.74,9153,12.31,72810.0,12.29,-24.21,-24.11,0,*78
1520773409.98,9154,12.31,72810.8,12.23,-23.95,-23.95,0,*76
1520773411.21,9155,12.31,72810.3,12.23,-24.47,-24.41,0,*71
1520773412.44,9156,12.25,72808.3,12.23,-24.41,-24.31,0,*73
1520773413.66,9157,12.31,72812.0,12.23,-24.31,-24.15,0,*73
1520773414.91,9158,12.31,72808.5,12.19,-23.99,-23.69,0,*7C
1520773416.11,9159,12.31,72808.8,12.19,-23.89,-23.89,0,*72
1520773417.36,9160,12.31,72810.3,12.19,-23.49,-23.33,0,*75
1520773418.61,9161,12.31,72808.5,12.17,-24.21,-24.05,0,*71
1520773419.88,9162,12.31,72814.5,12.17,-23.95,-23.69,0,*77
1520773421.13,9163,12.31,72814.3,12.17,-23.53,-23.39,0,*79
1520773422.36,9164,12.31,72810.8,12.17,-23.13,-23.09,0,*79
1520773423.61,9165,12.31,72808.8,12.15,-23.95,-23.85,0,*70
1520773424.83,9166,12.31,72808.3,12.15,-23.99,-23.79,0,*7C
1520773426.11,9167,12.31,72806.8,12.13,-23.53,-23.33,0,*73
1520773427.33,9168,12.31,72810.5,12.11,-23.49,-23.39,0,*7F
1520773428.61,9169,12.31,72808.3,12.13,-23.03,-23.03,0,*7B
1520773429.84,9170,12.25,72806.0,12.11,-22.93,-22.77,0,*7B
1520773431.12,9171,12.31,72808.0,12.13,-22.77,-22.77,0,*72
1520773432.37,9172,12.31,72808.3,12.13,-23.03,-22.93,0,*79
1520773433.57,9173,12.31,72808.3,12.11,-22.67,-22.41,0,*76
1520773434.79,9174,12.31,72806.8,12.13,-22.57,-22.41,0,*70
1520773435.98,9175,12.31,72806.8,12.11,-22.41,-22.41,0,*74
1520773437.21,9176,12.31,72804.3,12.13,-22.53,-22.37,0,*77
1520773438.46,9177,12.31,72810.0,12.13,-22.21,-22.07,0,*70
1520773439.73,9178,12.31,72810.3,12.13,-21.67,-21.57,0,*78
1520773440.98,9179,12.31,72804.8,12.13,-21.33,-21.13,0,*78
1520773442.18,9180,12.31,72810.5,12.15,-21.09,-20.93,0,*78
1520773443.43,9181,12.31,72810.5,12.17,-21.17,-21.03,0,*7C
1520773444.66,9182,12.31,72808.3,12.17,-21.09,-20.89,0,*73
1520773445.88,9183,12.31,72808.0,12.19,-21.13,-21.03,0,*74
1520773447.11,9184,12.31,72810.0,12.19,-21.17,-21.03,0,*77
1520773448.33,9185,12.31,72808.5,12.19,-21.33,-21.13,0,*71
1520773449.61,9186,12.31,72808.3,12.21,-21.27,-21.03,0,*7D
1520773450.86,9187,12.31,72808.8,12.21,-21.17,-21.03,0,*7F
1520773452.08,9188,12.31,72812.5,12.21,-21.63,-21.43,0,*77
1520773453.33,9189,12.31,72808.5,12.21,-21.67,-21.63,0,*70
1520773454.55,9190,12.31,72812.0,12.23,-21.09,-20.83,0,*7D
1520773455.78,9191,12.31,72810.5,12.23,-22.17,-21.93,0,*70
1520773456.98,9192,12.31,72808.0,12.23,-22.57,-22.27,0,*7B
1520773458.18,9193,12.31,72808.0,12.23,-22.67,-22.53,0,*7A
1520773459.37,9194,12.31,72810.3,12.23,-22.83,-22.67,0,*70
1520773460.56,9195,12.31,72812.0,12.23,-22.03,-21.63,0,*7E
1520773461.83,9196,12.31,72810.5,12.21,-21.97,-21.83,0,*7F
1520773463.11,9197,12.31,72810.3,12.21,-21.53,-21.33,0,*7D
1520773464.33,9198,12.31,72810.0,12.21,-22.63,-22.53,0,*77
1520773465.55,9199,12.31,72810.5,12.21,-22.07,-21.93,0,*7B
1520773466.8,9200,12.31,72808.5,12.21,-21.53,-21.47,0,*73
1520773468.03,9201,12.31,72810.0,12.23,-23.19,-23.13,0,*7F
1520773469.28,9202,12.31,72812.0,12.23,-23.29,-23.03,0,*7E
1520773470.48,9203,12.31,72810.3,12.19,-22.57,-22.41,0,*79
1520773471.73,9204,12.31,72808.5,12.21,-21.17,-21.03,0,*77
1520773472.92,9205,12.31,72808.3,12.23,-20.93,-20.69,0,*74
1520773474.12,9206,12.31,72808.3,12.23,-20.63,-20.29,0,*7C
1520773475.35,9207,12.31,72812.3,12.27,-20.15,-19.95,0,*75
1520773476.56,9208,12.31,72810.0,12.27,-20.93,-20.89,0,*73
1520773477.79,9209,12.31,72810.3,12.27,-20.79,-20.63,0,*72
1520773479.04,9210,12.31,72808.3,12.29,-21.57,-21.39,0,*77
1520773480.24,9211,12.31,72808.3,12.31,-20.89,-20.69,0,*79
1520773481.48,9212,12.31,72810.3,12.29,-20.59,-20.43,0,*76
1520773482.7,9213,12.31,72810.5,12.31,-21.27,-21.13,0,*72
1520773483.93,9214,12.31,72806.5,12.31,-20.59,-20.35,0,*78
1520773485.13,9215,12.31,72808.8,12.35,-20.93,-20.69,0,*72
1520773486.35,9216,12.31,72808.0,12.35,-21.47,-21.33,0,*77
1520773487.58,9217,12.31,72810.0,12.33,-21.63,-21.47,0,*75
1520773488.8,9218,12.31,72812.3,12.35,-21.73,-21.57,0,*7C
1520773490.03,9219,12.31,72810.8,12.33,-21.77,-21.63,0,*78
1520773491.29,9220,12.31,72814.5,12.33,-20.83,-20.59,0,*70
1520773492.52,9221,12.31,72808.8,12.35,-20.83,-20.63,0,*7E
1520773493.75,9222,12.31,72810.8,12.37,-20.93,-20.73,0,*7F
1520773494.98,9223,12.31,72810.3,12.35,-20.99,-20.93,0,*78
1520773496.2,9224,12.31,72808.3,12.35,-21.33,-21.09,0,*7C
1520773497.43,9225,12.31,72812.0,12.35,-21.27,-21.13,0,*73
1520773498.68,9226,12.31,72810.8,12.37,-21.27,-21.17,0,*76
1520773499.93,9227,12.31,72812.8,12.37,-21.73,-21.53,0,*76
1520773501.18,9228,12.31,72808.5,12.37,-21.17,-21.03,0,*7E
1520773502.46,9229,12.31,72806.8,12.37,-21.83,-21.87,0,*7E
1520773503.71,9230,12.31,72808.5,12.37,-22.31,-22.11,0,*70
1520773504.96,9231,12.31,72808.5,12.37,-21.73,-21.57,0,*75
1520773506.2,9232,12.31,72808.3,12.37,-21.97,-21.73,0,*7A
1520773507.45,9233,12.31,72808.5,12.37,-21.57,-21.43,0,*74
1520773508.72,9234,12.31,72804.0,12.37,-21.83,-21.67,0,*7C
1520773509.93,9235,12.31,72806.3,12.35,-22.53,-22.37,0,*77
1520773511.18,9236,12.31,72808.0,12.33,-22.47,-22.37,0,*77
1520773512.44,9237,12.31,72804.8,12.33,-21.13,-20.83,0,*79
1520773513.67,9238,12.31,72806.8,12.35,-20.69,-20.49,0,*7A
1520773514.89,9239,12.31,72810.5,12.35,-21.09,-20.83,0,*7A
1520773516.12,9240,12.31,72810.8,12.37,-20.93,-20.63,0,*7A
1520773517.35,9241,12.31,72810.0,12.37,-20.89,-20.73,0,*71
1520773518.63,9242,12.31,72808.8,12.37,-21.57,-21.27,0,*70
1520773519.88,9243,12.31,72810.0,12.37,-21.43,-21.23,0,*70
1520773521.13,9244,12.31,72810.3,12.37,-21.87,-21.73,0,*7A
1520773522.36,9245,12.31,72810.8,12.37,-22.53,-22.37,0,*72
1520773523.56,9246,12.31,72810.8,12.35,-22.57,-22.41,0,*76
1520773524.78,9247,12.31,72810.0,12.33,-21.63,-21.47,0,*70
1520773526.01,9248,12.31,72808.3,12.35,-22.41,-22.21,0,*79
1520773527.24,9249,12.31,72806.0,12.33,-22.27,-22.27,0,*78
1520773528.49,9250,12.31,72810.0,12.33,-21.47,-21.33,0,*73
1520773529.72,9251,12.31,72808.5,12.33,-20.89,-20.59,0,*7C
1520773530.95,9252,12.31,72810.5,12.33,-22.07,-21.93,0,*7C
1520773532.2,9253,12.31,72808.3,12.33,-22.21,-22.11,0,*70
1520773533.4,9254,12.31,72808.3,12.35,-22.07,-21.93,0,*7C
1520773534.62,9255,12.31,72804.5,12.33,-22.41,-22.11,0,*70
1520773535.85,9256,12.31,72810.8,12.33,-22.57,-22.37,0,*70
1520773537.07,9257,12.31,72810.5,12.31,-23.89,-23.69,0,*7B
1520773538.32,9258,12.31,72808.3,12.29,-25.03,-24.93,0,*7B
1520773539.57,9259,12.31,72806.8,12.23,-24.25,-23.99,0,*78
1520773540.79,9260,12.31,72810.5,12.23,-23.29,-23.13,0,*7B
1520773542.01,9261,12.31,72810.0,12.23,-22.03,-21.87,0,*7C
1520773543.26,9262,12.31,72808.0,12.23,-21.87,-21.57,0,*7D
1520773544.46,9263,12.31,72808.3,12.23,-22.57,-22.37,0,*77
1520773545.74,9264,12.31,72808.0,12.21,-21.53,-21.27,0,*77
1520773546.97,9265,12.31,72810.8,12.19,-21.27,-21.17,0,*7D
1520773548.25,9266,12.31,72808.5,12.29,-21.33,-21.23,0,*7F
1520773549.5,9267,12.31,72812.8,12.23,-20.99,-20.83,0,*7E
1520773550.7,9268,12.31,72810.3,12.23,-21.43,-21.39,0,*77
1520773551.9,9269,12.31,72808.3,12.23,-23.13,-22.97,0,*76
1520773553.12,9270,12.31,72808.0,12.23,-22.87,-22.73,0,*78
1520773554.31,9271,12.31,72810.3,12.23,-23.13,-22.87,0,*7E
1520773555.54,9272,12.31,72810.3,12.19,-22.77,-22.53,0,*7E
1520773556.74,9273,12.31,72810.8,12.19,-22.63,-22.41,0,*79
1520773557.99,9274,12.31,72810.5,12.19,-23.19,-23.19,0,*7E
1520773559.25,9275,12.31,72804.5,12.19,-23.19,-23.03,0,*74
1520773560.49,9276,12.31,72808.8,12.17,-23.29,-23.13,0,*7B
1520773561.75,9277,12.31,72808.5,12.15,-24.25,-24.11,0,*76
1520773562.98,9278,12.31,72808.3,12.13,-23.09,-22.93,0,*7A
1520773564.25,9279,12.31,72810.5,12.13,-24.15,-23.99,0,*7A
1520773565.47,9280,12.31,72810.0,12.11,-22.93,-22.73,0,*73
1520773566.7,9281,12.31,72808.5,12.11,-22.73,-22.57,0,*7A
1520773567.94,9282,12.31,72812.5,12.09,-24.77,-24.67,0,*77
1520773569.15,9283,12.31,72810.0,12.09,-24.93,-24.77,0,*7D
1520773570.35,9284,12.31,72810.0,12.07,-23.89,-23.75,0,*7D
1520773571.63,9285,12.31,72810.3,12.01,-23.49,-23.23,0,*75
1520773572.91,9286,12.31,72808.0,12.01,-23.33,-23.19,0,*72
1520773574.14,9287,12.31,72810.3,12.01,-22.53,-22.37,0,*79
1520773575.4,9288,12.31,72808.5,11.97,-22.27,-22.17,0,*7B
1520773576.6,9289,12.31,72810.8,11.99,-22.27,-22.11,0,*72
1520773577.83,9290,12.31,72810.0,12.01,-22.53,-22.37,0,*7F
1520773579.05,9291,12.31,72808.8,11.99,-22.41,-22.21,0,*78
1520773580.3,9292,12.31,72810.5,12.01,-21.97,-21.93,0,*7B
1520773581.58,9293,12.31,72808.8,12.01,-21.97,-21.83,0,*7B
1520773582.82,9294,12.31,72806.0,12.01,-21.63,-21.57,0,*7E
1520773584.05,9295,12.31,72806.3,12.01,-22.53,-22.37,0,*7A
1520773585.33,9296,12.31,72810.0,12.01,-23.53,-23.49,0,*70
1520773586.56,9297,12.31,72808.0,11.99,-23.79,-23.65,0,*75
1520773587.78,9298,12.31,72810.0,11.97,-22.67,-22.63,0,*7D
1520773589.03,9299,12.31,72810.3,11.97,-22.47,-22.27,0,*7E
1520773590.29,9300,12.31,72808.8,11.97,-22.17,-22.03,0,*7C
1520773591.51,9301,12.31,72808.8,11.99,-21.83,-21.73,0,*79
1520773592.71,9302,12.31,72808.8,11.99,-21.93,-21.63,0,*7A
1520773593.96,9303,12.31,72808.5,12.01,-21.83,-21.63,0,*78
1520773595.18,9304,12.31,72810.0,11.99,-21.43,-21.33,0,*74
1520773596.39,9305,12.31,72804.3,11.99,-21.73,-21.47,0,*75
1520773597.61,9306,12.31,72806.3,11.99,-22.21,-21.93,0,*7B
1520773598.87,9307,12.31,72808.8,12.01,-21.97,-21.93,0,*76
1520773600.09,9308,12.31,72808.3,12.01,-22.27,-22.11,0,*78
1520773601.31,9309,12.31,72804.8,12.01,-22.07,-21.77,0,*78
1520773602.59,9310,12.31,72808.3,12.01,-21.57,-21.57,0,*74
1520773603.84,9311,12.31,72808.5,12.01,-23.03,-22.93,0,*7D
1520773605.07,9312,12.31,72806.5,11.99,-22.37,-22.21,0,*73
1520773606.29,9313,12.31,72808.8,11.99,-22.21,-22.07,0,*71
1520773607.5,9314,12.31,72810.0,11.99,-22.93,-22.87,0,*77
1520773608.72,9315,12.31,72808.5,11.99,-22.07,-21.97,0,*79
1520773609.94,9316,12.31,72808.3,11.99,-21.57,-21.43,0,*75
1520773611.19,9317,12.31,72808.5,11.99,-21.97,-21.83,0,*74
1520773612.44,9318,12.31,72810.8,11.99,-21.97,-21.83,0,*7B
1520773613.64,9319,12.31,72808.8,11.99,-22.11,-22.07,0,*78
1520773614.89,9320,12.31,72812.5,11.99,-22.21,-22.21,0,*75
1520773616.13,9321,12.31,72808.5,11.97,-21.63,-21.53,0,*79
1520773617.36,9322,12.31,72808.0,11.99,-21.43,-21.27,0,*75
1520773618.61,9323,12.31,72806.8,12.01,-21.13,-20.99,0,*77
1520773619.84,9324,12.31,72804.8,12.05,-21.09,-20.93,0,*75
1520773621.12,9325,12.31,72806.0,12.01,-20.79,-20.49,0,*71
1520773622.32,9326,12.31,72810.5,12.07,-20.73,-20.43,0,*74
1520773623.54,9327,12.31,72810.8,12.07,-21.33,-21.17,0,*70
1520773624.74,9328,12.31,72806.8,12.07,-20.93,-20.93,0,*79
1520773625.96,9329,12.31,72810.8,12.07,-20.79,-20.69,0,*79
1520773627.19,9330,12.31,72808.5,12.09,-20.39,-20.29,0,*7F
1520773628.42,9331,12.31,72808.8,12.09,-20.93,-20.89,0,*74
1520773629.67,9332,12.31,72810.3,12.09,-21.67,-21.63,0,*78
1520773630.89,9333,12.31,72810.0,12.09,-22.83,-22.63,0,*73
1520773632.17,9334,12.31,72810.3,12.09,-22.31,-22.17,0,*7E
1520773633.39,9335,12.31,72808.0,12.09,-22.27,-22.03,0,*7D
1520773634.6,9336,12.31,72808.3,12.07,-22.03,-21.83,0,*7D
1520773635.83,9337,12.31,72808.8,12.07,-21.63,-21.53,0,*74
1520773637.07,9338,12.31,72810.5,12.09,-21.67,-21.63,0,*72
1520773638.3,9339,12.31,72808.3,12.09,-21.17,-21.17,0,*77
1520773639.52,9340,12.31,72810.0,12.09,-20.93,-20.73,0,*77
1520773640.78,9341,12.31,72808.8,12.09,-20.53,-20.39,0,*74
1520773642.0,9342,12.31,72810.5,12.13,-20.73,-20.63,0,*71
1520773643.25,9343,12.31,72808.3,12.13,-20.89,-20.83,0,*7B
1520773644.47,9344,12.31,72808.0,12.13,-21.63,-21.47,0,*70
1520773645.7,9345,12.31,72808.3,12.13,-21.63,-21.47,0,*71
1520773646.95,9346,12.31,72806.5,12.13,-21.13,-20.99,0,*77
1520773648.18,9347,12.31,72810.3,12.15,-21.39,-21.23,0,*78
1520773649.38,9348,12.38,72812.3,12.15,-21.09,-20.93,0,*7E
1520773650.61,9349,12.31,72810.5,12.17,-20.89,-20.73,0,*7A
1520773651.86,9350,12.31,72810.5,12.17,-21.39,-21.23,0,*7C
1520773653.09,9351,12.31,72810.3,12.15,-21.63,-21.53,0,*77
1520773654.29,9352,12.38,72812.0,12.15,-22.41,-22.27,0,*77
1520773655.52,9353,12.38,72812.5,12.15,-22.17,-22.03,0,*73
1520773656.74,9354,12.38,72810.3,12.15,-21.87,-21.63,0,*7B
1520773657.98,9355,12.31,72808.8,12.15,-21.47,-21.23,0,*72
1520773659.2,9356,12.31,72808.8,12.15,-21.57,-21.39,0,*7B
1520773660.45,9357,12.31,72810.3,12.15,-21.57,-21.53,0,*76
1520773661.68,9358,12.31,72808.5,12.13,-21.77,-21.63,0,*7E
1520773662.92,9359,12.31,72808.8,12.13,-21.83,-21.63,0,*74
1520773664.16,9360,12.31,72810.3,12.15,-21.39,-21.23,0,*7D
1520773665.35,9361,12.31,72808.3,12.15,-22.07,-21.93,0,*79
1520773666.57,9362,12.31,72808.3,12.17,-22.27,-22.11,0,*73
1520773667.8,9363,12.31,72808.3,12.15,-22.17,-22.03,0,*70
1520773669.0,9364,12.31,72808.5,12.15,-22.37,-22.07,0,*71
1520773670.23,9365,12.38,72812.0,12.13,-22.37,-22.11,0,*71
1520773671.48,9366,12.38,72810.0,12.13,-21.93,-21.67,0,*7D
1520773672.68,9367,12.31,72808.8,12.15,-21.39,-21.13,0,*79
1520773673.91,9368,12.31,72810.0,12.13,-21.13,-20.89,0,*7A
1520773675.16,9369,12.31,72808.5,12.13,-21.63,-21.57,0,*7E
1520773676.4,9370,12.38,72810.0,12.13,-21.63,-21.57,0,*76
1520773677.65,9371,12.38,72812.5,12.13,-21.93,-21.67,0,*7B
1520773678.9,9372,12.31,72808.0,12.13,-22.41,-22.21,0,*75
1520773680.15,9373,12.31,72808.3,12.11,-21.57,-21.33,0,*72
1520773681.35,9374,12.31,72808.0,12.15,-21.13,-20.93,0,*7A
1520773682.58,9375,12.31,72808.0,12.15,-20.93,-20.83,0,*73
1520773683.8,9376,12.31,72808.3,12.15,-21.27,-21.13,0,*76
1520773685.05,9377,12.31,72810.0,12.15,-21.57,-21.53,0,*74
1520773686.31,9378,12.31,72808.8,12.13,-20.99,-20.89,0,*78
1520773687.57,9379,12.38,72810.0,12.15,-21.27,-21.23,0,*7A
1520773688.79,9380,12.31,72810.0,12.15,-22.21,-22.07,0,*7C
1520773690.02,9381,12.31,72808.5,12.17,-22.27,-22.27,0,*7B
1520773691.25,9382,12.38,72810.3,12.15,-22.17,-22.03,0,*7F
1520773692.49,9383,12.38,72814.0,12.13,-22.87,-22.73,0,*76
1520773693.72,9384,12.38,72810.5,12.13,-22.53,-22.37,0,*78
1520773694.92,9385,12.31,72808.0,12.11,-22.27,-22.11,0,*7C
1520773696.14,9386,12.31,72808.8,12.13,-22.27,-22.07,0,*7A
1520773697.42,9387,12.31,72808.3,12.13,-20.99,-20.83,0,*72
1520773698.64,9388,12.38,72812.0,12.13,-20.73,-20.63,0,*77
1520773699.89,9389,12.38,72814.3,12.13,-21.27,-21.13,0,*70
1520773701.14,9390,12.38,72810.5,12.13,-21.83,-21.77,0,*74